DELTA 1 DEB, 42641

Orbit data source: Space-Track

DELTA 1 DEB, 42641 is space debris in SSO originally from a launch on Thu, 12 Jun 1975 UTC launched from the Air Force Western Test Range (AFWTR). Debris objects in space refer to the collection of defunct objects orbiting the Earth. Examples of debris include non-operational satellites, rocket bodies, and fragments generated from explosions, collisions, or faulty payload assembly.

Loading next visibility...
Identifier
42641, 1975-052MA
Orbit
SSO
Country
Flag of USUS
Related business
Manufacturer
Unknown
Mission
Spacecraft
Bus & Motor
Unknown
Mass
Unknown
Launch date (UTC)
1975-06-12 (51 years ago)
Launch vehicle
Unknown
Launch site
Air Force Western Test Range (AFWTR)
Object type
Payload
Rocket body
Debris
Shape & HBR
Unknown shape, 0.1 m
Radar Cross Section
Small (<0.1 m²)

Expand to show TLE details & history
Last TLE update: 2 days ago

TLE from 2 days ago
0 DELTA 1 DEB
1 42641U 75052MA  25347.48571969  .00000218  00000-0  50615-3 0  9997
2 42641  99.8101  76.5298 0061241 198.1909 224.9875 13.35599930587548
Epoch: 2025-12-13T11:39Z
TLE epoch observation values (Epoch: 2025-12-13T11:39:26.181Z)
Latitude
61.19647°
Longitude
161.02537°
Altitude
1,168.726 km
Speed
7.259 km/s
True Right ascension
03h 53m 11s
True Declination
61° 03' 32"
Sunlit
Object was in full shadow at epoch
Visualization orbit readout
Latitude
Unknown
Longitude
Unknown
Altitude
Unknown
Speed
Unknown
Apparent Right ascension
Unknown
Apparent Declination
Unknown
Sunlit
N/A
Visualization observer readout
Local Sidereal Time
18:50:44
Azimuth
Unknown
Elevation
Unknown
Doppler factor
Unknown
Orbital elements
Apogee altitude
1,168.979 km
Perigee altitude
1,077.103 km
Semi-major axis
7,501.178 km
Eccentricity
0.00612
Inclination
99.8101°
RAAN
76.5298°
Arg. of periapsis
198.1909°
True anomaly
224.49406°
Mean anomaly
224.9875°
Eccentric anomaly
224.74051°
Mean motion
3.34079 °/min
Orbital period
107.76 mins
BSTAR
0.00050615
Loading maneuver chart data...
Computing Atmospheric mass density...

Documentation

Showing up to 5 results
|